• In Belarus
  • List of Countries
  • For 7 days
  • Water Temperature
  • Satellite Maps
  • Weather Map
  • Weather Widgets
  • user-avatar
    Login

    Hourly Weather Kapan

    Today, 18 November, Sunday

    Time Temperature Precipitation Wind Pressure Humidity
    00:00 +9°C° 0 mm 1 mps 688 mmHg 75%
    01:00 +9°C° 0 mm 1 mps 688 mmHg 75%
    02:00 +8°C° 0 mm 1 mps 687 mmHg 74%
    03:00 +8°C° 0 mm 1 mps 687 mmHg 74%
    04:00 +8°C° 0 mm 1 mps 687 mmHg 74%
    05:00 +7°C° 0 mm 1 mps 687 mmHg 73%
    06:00 +7°C° 0 mm 1 mps 687 mmHg 73%
    07:00 +8°C° 0 mm 1 mps 687 mmHg 67%
    08:00 +9°C° 0 mm 1 mps 687 mmHg 61%
    09:00 +10°C° 0 mm 1 mps 688 mmHg 54%
    10:00 +10°C° 0 mm 2 mps 687 mmHg 51%
    11:00 +12°C° 0 mm 2 mps 687 mmHg 48%
    12:00 +13°C° 0 mm 2 mps 687 mmHg 45%
    13:00 +12°C° 0 mm 2 mps 687 mmHg 46%
    14:00 +12°C° 0 mm 2 mps 686 mmHg 48%
    15:00 +12°C° 0 mm 2 mps 686 mmHg 50%
    16:00 +9°C° 0 mm 2 mps 686 mmHg 54%
    17:00 +9°C° 0 mm 1 mps 686 mmHg 59%
    18:00 +8°C° 0 mm 1 mps 686 mmHg 63%
    19:00 +8°C° 0 mm 1 mps 686 mmHg 64%
    20:00 +8°C° 0 mm 1 mps 686 mmHg 65%
    21:00 +7°C° 0 mm 1 mps 686 mmHg 65%
    22:00 +7°C° 0 mm 1 mps 686 mmHg 65%
    23:00 +7°C° 0 mm 1 mps 686 mmHg 65%

    Tomorrow, 19 November, Monday

    Time Temperature Precipitation Wind Pressure Humidity
    00:00 +7°C° 0 mm 1 mps 687 mmHg 65%
    01:00 +6°C° 0 mm 1 mps 686 mmHg 65%
    02:00 +6°C° 0 mm 1 mps 686 mmHg 65%
    03:00 +6°C° 0 mm 1 mps 686 mmHg 65%
    04:00 +6°C° 0 mm 1 mps 686 mmHg 65%
    05:00 +6°C° 0 mm 1 mps 686 mmHg 65%
    06:00 +6°C° 0 mm 1 mps 686 mmHg 65%
    07:00 +7°C° 0 mm 1 mps 687 mmHg 59%
    08:00 +9°C° 0 mm 1 mps 687 mmHg 54%
    09:00 +10°C° 0 mm 1 mps 688 mmHg 49%
    10:00 +11°C° 0 mm 1 mps 688 mmHg 45%
    11:00 +12°C° 0 mm 2 mps 688 mmHg 42%
    12:00 +13°C° 0 mm 2 mps 688 mmHg 39%
    13:00 +13°C° 0 mm 2 mps 688 mmHg 40%
    14:00 +13°C° 0 mm 2 mps 687 mmHg 40%
    15:00 +13°C° 0 mm 2 mps 687 mmHg 41%
    16:00 +10°C° 0 mm 2 mps 687 mmHg 46%
    17:00 +10°C° 0 mm 1 mps 687 mmHg 52%
    18:00 +8°C° 0 mm 1 mps 687 mmHg 57%
    19:00 +8°C° 0 mm 1 mps 687 mmHg 57%
    20:00 +8°C° 0 mm 1 mps 687 mmHg 57%
    21:00 +7°C° 0 mm 0 mps 687 mmHg 57%
    22:00 +8°C° 0 mm 1 mps 687 mmHg 56%
    23:00 +8°C° 0 mm 1 mps 687 mmHg 55%

    Day after tomorrow, 20 November, Tuesday

    Time Temperature Precipitation Wind Pressure Humidity
    00:00 +8°C° 0 mm 1 mps 687 mmHg 54%
    01:00 +8°C° 0 mm 1 mps 687 mmHg 54%
    02:00 +7°C° 0 mm 1 mps 687 mmHg 54%
    03:00 +7°C° 0 mm 1 mps 687 mmHg 53%
    04:00 +7°C° 0 mm 1 mps 687 mmHg 53%
    05:00 +7°C° 0 mm 1 mps 686 mmHg 53%
    06:00 +7°C° 0 mm 1 mps 686 mmHg 53%
    07:00 +9°C° 0 mm 1 mps 687 mmHg 48%
    08:00 +11°C° 0 mm 1 mps 687 mmHg 44%
    09:00 +12°C° 0 mm 1 mps 688 mmHg 40%
    10:00 +13°C° 0 mm 1 mps 687 mmHg 38%
    11:00 +14°C° 0 mm 2 mps 687 mmHg 36%
    12:00 +15°C° 0 mm 2 mps 687 mmHg 34%
    13:00 +15°C° 0 mm 2 mps 687 mmHg 35%
    14:00 +15°C° 0 mm 2 mps 686 mmHg 35%
    15:00 +15°C° 0 mm 2 mps 686 mmHg 36%
    16:00 +14°C° 0 mm 2 mps 686 mmHg 41%
    17:00 +12°C° 0 mm 1 mps 685 mmHg 46%
    18:00 +11°C° 0 mm 1 mps 685 mmHg 50%
    19:00 +11°C° 0 mm 1 mps 685 mmHg 49%
    20:00 +11°C° 0 mm 1 mps 685 mmHg 48%
    21:00 +11°C° 0 mm 1 mps 686 mmHg 46%
    22:00 +9°C° 0 mm 2 mps 685 mmHg 46%
    23:00 +9°C° 0 mm 2 mps 685 mmHg 46%

    21 November, Wednesday

    Time Temperature Precipitation Wind Pressure Humidity
    00:00 +9°C° 0 mm 2 mps 685 mmHg 46%
    01:00 +9°C° 0 mm 2 mps 685 mmHg 47%
    02:00 +8°C° 0 mm 2 mps 685 mmHg 47%
    03:00 +8°C° 0 mm 2 mps 684 mmHg 48%
    04:00 +8°C° 0 mm 2 mps 684 mmHg 48%
    05:00 +8°C° 0 mm 2 mps 684 mmHg 49%
    06:00 +8°C° 0 mm 2 mps 684 mmHg 50%
    07:00 +9°C° 0 mm 2 mps 685 mmHg 46%
    08:00 +12°C° 0 mm 2 mps 685 mmHg 43%
    09:00 +13°C° 0 mm 2 mps 685 mmHg 39%
    10:00 +14°C° 0 mm 2 mps 685 mmHg 36%
    11:00 +15°C° 0 mm 2 mps 685 mmHg 34%
    12:00 +16°C° 0 mm 2 mps 684 mmHg 31%
    13:00 +16°C° 0 mm 2 mps 684 mmHg 32%
    14:00 +16°C° 0 mm 2 mps 684 mmHg 33%
    15:00 +15°C° 0 mm 2 mps 683 mmHg 34%
    16:00 +14°C° 0 mm 2 mps 683 mmHg 39%
    17:00 +12°C° 0 mm 1 mps 683 mmHg 45%
    18:00 +11°C° 0 mm 1 mps 683 mmHg 50%
    19:00 +11°C° 0 mm 1 mps 683 mmHg 51%
    20:00 +11°C° 0 mm 1 mps 683 mmHg 51%
    21:00 +10°C° 0 mm 1 mps 683 mmHg 51%
    22:00 +10°C° 0 mm 1 mps 683 mmHg 52%
    23:00 +10°C° 0 mm 1 mps 683 mmHg 52%

    22 November, Thursday

    Time Temperature Precipitation Wind Pressure Humidity
    00:00 +10°C° 0 mm 1 mps 683 mmHg 53%
    01:00 +10°C° 0 mm 1 mps 682 mmHg 53%
    02:00 +9°C° 0 mm 1 mps 682 mmHg 53%
    03:00 +9°C° 0 mm 1 mps 682 mmHg 54%
    04:00 +8°C° 0 mm 2 mps 682 mmHg 54%
    05:00 +8°C° 0 mm 2 mps 682 mmHg 55%
    06:00 +8°C° 0 mm 2 mps 682 mmHg 56%
    07:00 +10°C° 0 mm 1 mps 683 mmHg 54%
    08:00 +11°C° 0 mm 1 mps 683 mmHg 52%
    09:00 +12°C° 0 mm 1 mps 683 mmHg 50%
    10:00 +13°C° 0 mm 2 mps 683 mmHg 49%
    11:00 +14°C° 0 mm 2 mps 682 mmHg 48%
    12:00 +14°C° 0 mm 2 mps 682 mmHg 47%
    13:00 +14°C° 0 mm 2 mps 682 mmHg 49%
    14:00 +14°C° 0 mm 2 mps 682 mmHg 51%
    15:00 +14°C° 0 mm 2 mps 681 mmHg 53%
    16:00 +13°C° 0 mm 2 mps 681 mmHg 58%
    17:00 +12°C° 0 mm 1 mps 682 mmHg 63%
    18:00 +11°C° 0 mm 1 mps 682 mmHg 68%
    19:00 +11°C° 0 mm 1 mps 682 mmHg 69%
    20:00 +10°C° 0 mm 1 mps 682 mmHg 69%
    21:00 +10°C° 0 mm 1 mps 682 mmHg 70%
    22:00 +10°C° 0 mm 1 mps 682 mmHg 71%
    23:00 +10°C° 0 mm 1 mps 682 mmHg 72%

    23 November, Friday

    Time Temperature Precipitation Wind Pressure Humidity
    00:00 +10°C° 0 mm 1 mps 682 mmHg 72%
    01:00 +9°C° 0.1 mm 1 mps 682 mmHg 73%
    02:00 +9°C° 0.1 mm 1 mps 682 mmHg 74%
    03:00 +9°C° 0.1 mm 1 mps 682 mmHg 75%
    04:00 +9°C° 0 mm 1 mps 682 mmHg 75%
    05:00 +9°C° 0 mm 1 mps 682 mmHg 76%
    06:00 +8°C° 0 mm 1 mps 682 mmHg 77%
    07:00 +9°C° 0 mm 1 mps 683 mmHg 73%
    08:00 +10°C° 0 mm 1 mps 683 mmHg 70%
    09:00 +11°C° 0 mm 1 mps 684 mmHg 66%
    10:00 +12°C° 0 mm 1 mps 684 mmHg 64%
    11:00 +12°C° 0 mm 2 mps 684 mmHg 62%
    12:00 +13°C° 0 mm 2 mps 683 mmHg 59%
    13:00 +12°C° 0.1 mm 2 mps 683 mmHg 62%
    14:00 +12°C° 0.1 mm 2 mps 683 mmHg 64%
    15:00 +12°C° 0.1 mm 2 mps 683 mmHg 67%
    16:00 +10°C° 0.2 mm 2 mps 684 mmHg 72%
    17:00 +9°C° 0.2 mm 2 mps 684 mmHg 78%
    18:00 +9°C° 0.2 mm 1 mps 684 mmHg 83%
    19:00 +9°C° 0.2 mm 1 mps 685 mmHg 85%
    20:00 +9°C° 0.2 mm 1 mps 685 mmHg 87%
    21:00 +8°C° 0.2 mm 1 mps 686 mmHg 89%
    22:00 +8°C° 0.3 mm 1 mps 686 mmHg 89%
    23:00 +8°C° 0.3 mm 1 mps 686 mmHg 90%
    Show more